Location: Milton
(43.5183°N, 79.8775°W)
Time: 07:38:37
(UTC+00:00)

UNISAT 6 - Pass Details

Date: 27 March 2023
Orbit: 599 x 680 km, 97.7° (Epoch: 02 June)

Event Time Altitude Azimuth Distance (km) Brightness Sun altitude
Rises 00:21:02 0° 356° (N) 3,039 ? -8.4°
Reaches altitude 10° 00:23:59 10° 336° (NNW) 2,128 ? -8.9°
Maximum altitude 00:26:52 17° 297° (WNW) 1,726 ? -9.4°
Drops below altitude 10° 00:29:46 10° 259° (WSW) 2,125 ? -9.9°
Sets 00:32:43 0° 239° (WSW) 3,034 ? -10.5°
